[[{"header":{"parameterUnit":"m.s-1","parameterCategory":1,"la1":30.2992,"la2":30.254,"lo1":-89.0895,"lo2":-89.0443,"dy":0.0025,"dx":0.0025,"nx":19,"ny":19,"refTime":"2026-04-29T09:00:00:Z","depth":0,"parameterNumber":2,"parameterNumberName":"U-component_of_WINDS"},"data":[0,0,0,0.7054,0.7053,0.7008,0.7008,0.6965,0.6965,0,0,0,0,0,0,0,0,0,0,0,0.7077,0.7077,0.7054,0.7053,0.7008,0.7008,0.6965,0.6965,0,0,0,0,0,0,0,0,0,0,0,0.7077,0.7077,0.7077,0.7053,0.7008,0.7008,0.6965,0.6994,0,0,0,0,0,0,0,0,0,0,0.7035,0.7066,0.7077,0.7077,0.7053,0.7008,0.7008,0.6995,0.6992,0.6992,0,0.6996,0,0.698,0.6963,0.6963,0,0,0,0.7046,0.7068,0.7047,0.7077,0.7052,0.7009,0.7026,0.6993,0.699,0.6988,0.6995,0.6993,0.6979,0.6963,0.6963,0.699,0.699,0,0,0.7048,0.7074,0.705,0.7046,0.7055,0.7028,0.7025,0.6991,0.6999,0.6995,0.6991,0.6978,0.6963,0.6963,0.6989,0.699,0,0,0,0.706,0.7076,0.7056,0.7048,0.7039,0.7027,0.7024,0.7001,0.6992,0.6991,0.6978,0.6963,0.6962,0.6989,0.6989,0.7038,0,0,0,0.7061,0.7083,0.7057,0.7073,0.704,0.702,0.7035,0.6994,0.699,0.6978,0.6963,0.6962,0.6988,0.6989,0.7036,0.7057,0,0,0,0.7077,0.7085,0.7082,0.7074,0.7056,0.702,0.7008,0.6993,0.6982,0.6963,0.6962,0.6988,0.6989,0.7033,0.7053,0.7071,0,0,0,0.71,0.7126,0.7083,0.7107,0.7057,0.7051,0.7008,0.7002,0.6992,0.6962,0.6988,0.6989,0.7033,0.7051,0.7069,0.7091,0.7103,0,0,0.7147,0.7133,0.7145,0.7105,0.7113,0.7055,0.707,0.7036,0.701,0.6997,0.6998,0.7037,0.7053,0.7071,0.716,0.7169,0,0,0,0.7168,0.7177,0.7174,0.7165,0.714,0.7119,0.7079,0.7066,0.7055,0.7009,0.7047,0.7056,0.7065,0.7075,0.7083,0.7089,0.6995,0.6995,0.6995,0.7273,0.7238,0.7255,0.7215,0.7207,0.7166,0.7156,0.7131,0.7098,0.7108,0.7104,0.7162,0.7174,0.718,0.7187,0.7113,0.7113,0.7113,0.7113,0.7339,0.7345,0.7301,0.7302,0.7265,0.7264,0.7225,0.7202,0.7195,0.7163,0.7169,0.7136,0.7192,0.7195,0.7117,0.7116,0.7116,0.7115,0.7115,0.7403,0.74,0.7384,0.7367,0.7358,0.7316,0.7312,0.7278,0.7246,0.7252,0.7244,0.7243,0.7237,0.7251,0.7251,0.7251,0.7251,0.7251,0.7251,0.7476,0.7456,0.7457,0.7432,0.7421,0.7403,0.7361,0.7349,0.7327,0.7302,0.7302,0.7268,0.7204,0.7188,0.7254,0.7254,0.7254,0.7253,0.7253,0.7555,0.7532,0.7534,0.7523,0.7489,0.7482,0.7439,0.7417,0.7403,0.7401,0.7366,0.7324,0.7306,0.7299,0.7286,0.7374,0.7374,0.7374,0.7374,0.7609,0.7597,0.7591,0.7576,0.7557,0.7518,0.752,0.7487,0.7449,0.7437,0.7419,0.7399,0.7393,0.7379,0.737,0.7357,0.7461,0.7461,0.7461,0.7655,0.764,0.7648,0.7611,0.7582,0.7558,0.7558,0.7542,0.7493,0.7464,0.7427,0.7423,0.739,0.7381,0.7351,0.7339,0.7314,0,0]},{"header":{"parameterUnit":"m.s-1","parameterCategory":1,"la1":30.2992,"la2":30.254,"lo1":-89.0895,"lo2":-89.0443,"dy":0.0025,"dx":0.0025,"nx":19,"ny":19,"refTime":"2026-04-29T09:00:00:Z","depth":0,"parameterNumber":3,"parameterNumberName":"V-component_of_WINDS"},"data":[0,0,0,4.6138,4.614,4.6242,4.6242,4.6376,4.6377,0,0,0,0,0,0,0,0,0,0,0,4.6114,4.6115,4.6138,4.614,4.6242,4.6242,4.6376,4.6377,0,0,0,0,0,0,0,0,0,0,0,4.6113,4.6115,4.6116,4.6141,4.6242,4.6242,4.6375,4.6296,0,0,0,0,0,0,0,0,0,0,4.6197,4.6182,4.6114,4.6116,4.6141,4.6241,4.6242,4.6293,4.6301,4.6333,0,4.6366,0,4.6374,4.6387,4.6387,0,0,0,4.6135,4.6175,4.6197,4.6117,4.6142,4.6241,4.6194,4.6297,4.6307,4.6345,4.6368,4.6372,4.6376,4.6388,4.6388,4.6596,4.6597,0,0,4.6129,4.6135,4.619,4.6204,4.6192,4.6191,4.6198,4.6303,4.6327,4.6368,4.6375,4.6378,4.6389,4.639,4.6595,4.6596,0,0,0,4.6117,4.6131,4.615,4.6198,4.6216,4.6194,4.6202,4.6323,4.6329,4.6377,4.638,4.6389,4.6391,4.6593,4.6595,4.6662,0,0,0,4.6113,4.6124,4.6148,4.6153,4.6215,4.6272,4.6219,4.6321,4.6333,4.6379,4.639,4.6393,4.6592,4.6594,4.6657,4.6693,0,0,0,4.6105,4.6123,4.614,4.6153,4.6197,4.627,4.6282,4.6324,4.6335,4.6387,4.6393,4.6591,4.6594,4.6653,4.6686,4.6748,0,0,0,4.6097,4.6198,4.6141,4.6254,4.6196,4.6312,4.6281,4.6366,4.6419,4.639,4.6592,4.6595,4.6652,4.6681,4.6744,4.6802,4.6827,0,0,4.6227,4.6214,4.6279,4.6232,4.6359,4.6296,4.6431,4.6473,4.6471,4.6553,4.6558,4.6659,4.6685,4.6747,4.6967,4.6987,0,0,0,4.6322,4.637,4.6402,4.6454,4.6489,4.6521,4.6542,4.6556,4.6626,4.6516,4.6699,4.6714,4.675,4.6778,4.6795,4.6824,4.6608,4.6608,4.6608,4.6514,4.6508,4.6615,4.6621,4.6671,4.669,4.6729,4.6752,4.673,4.6773,4.6797,4.6932,4.6964,4.6977,4.7008,4.6828,4.6828,4.6828,4.6829,4.6702,4.6768,4.6737,4.683,4.6821,4.6898,4.6919,4.6901,4.6969,4.6913,4.6944,4.6884,4.6999,4.7026,4.6834,4.6833,4.6832,4.6832,4.6831,4.6827,4.6857,4.6875,4.6948,4.7004,4.7004,4.7071,4.706,4.705,4.7081,4.7105,4.7104,4.71,4.7093,4.7094,4.7094,4.7095,4.7095,4.7095,4.6949,4.6967,4.7027,4.7072,4.7102,4.7141,4.716,4.7189,4.7217,4.7204,4.7204,4.7176,4.7013,4.6971,4.7103,4.7101,4.71,4.71,4.7099,4.7142,4.7097,4.7189,4.722,4.727,4.7325,4.731,4.737,4.7391,4.7424,4.739,4.7271,4.7255,4.7242,4.7207,4.7392,4.7392,4.7392,4.7392,4.7247,4.7239,4.733,4.7379,4.7426,4.7422,4.7522,4.7536,4.7544,4.7556,4.7528,4.7481,4.7468,4.746,4.7442,4.7409,4.7641,4.7642,4.7642,4.7365,4.736,4.745,4.7459,4.7497,4.7528,4.7622,4.7677,4.7675,4.7652,4.7565,4.7554,4.7479,4.7456,4.743,4.7402,4.7342,0,0]}]]